Location: Arnaud-Guilhem
(43.1436°N, 0.8959°E)
Time: 18:03:24
(UTC+00:00)

Daily predictions for brighter satellites

Satellite Brightness Start Highest point End
(mag) Time Altitude Azimuth Time Altitude Azimuth Time Altitude Azimuth
NOAA 11 4.3 18:02:41 10° SSE 18:07:57 55° ENE 18:13:15 10° N
STARLINK-1063 3.8 18:05:22 10° SW 18:09:26 61° SE 18:13:31 10° ENE
STARLINK-1064 3.7 18:10:18 10° SW 18:14:24 67° SE 18:18:31 10° ENE
ADEOS Rocket 3.8 18:09:57 10° NNE 18:17:30 50° E 18:24:44 10° S
STARLINK-1041 3.6 18:15:16 10° SW 18:19:22 73° SE 18:23:31 10° ENE
Meteor 1-20 Rocket 4.4 18:14:12 10° SSE 18:19:24 47° E 18:24:43 10° NNE
Cosmos 2227 Rocket 4.1 18:18:50 10° NNE 18:20:42 11° NE 18:22:33 10° ENE
Cosmos 1656 Rocket 3.7 18:17:16 10° SSW 18:22:47 84° ESE 18:28:25 10° NNE
STARLINK-1038 3.6 18:20:12 10° SW 18:24:19 79° SE 18:28:28 10° NE
STARLINK-1046 3.6 18:25:11 10° SW 18:29:19 86° SE 18:33:28 10° NE
Cosmos 2285 Rocket 4.2 18:23:38 10° NNW 18:30:02 82° WSW 18:36:27 10° SSE
H-2A R/B 3.2 18:25:55 10° ESE 18:30:14 25° ENE 18:34:36 10° N
Cosmos 2034 Rocket 4.5 18:27:58 10° SSE 18:33:27 35° E 18:38:56 10° NNE
STARLINK-1039 3.6 18:30:11 10° SW 18:34:19 87° NW 18:38:22 11° NE
Cosmos 220 Rocket 4.4 18:32:12 10° S 18:36:12 38° ESE 18:40:11 10° NE
STARLINK-1045 3.7 18:35:09 10° WSW 18:39:18 81° NW 18:43:08 12° NE
Meteor 1-18 Rocket 4.4 18:33:50 10° N 18:39:36 52° ENE 18:45:14 10° SSE
Cosmos 1470 Rocket 4.3 18:35:52 10° SSW 18:40:09 57° W 18:44:30 10° N
COSMOS 2487 2.3 18:36:52 10° NNW 18:40:20 84° ENE 18:43:46 10° SSE
STARLINK-43 3.8 18:40:38 10° NW 18:44:12 45° NNE 18:46:22 21° E
STARLINK-1050 3.8 18:40:11 10° WSW 18:44:19 73° NW 18:47:59 13° NE
HJ-1C 3.6 18:41:54 10° SSE 18:45:03 45° ENE 18:48:15 10° N
Lacrosse 5 rocket 3.4 18:42:35 10° NNW 18:45:45 18° NNE 18:48:11 13° NE
Cosmos 468 Rocket 4.0 18:40:37 10° S 18:45:50 67° ESE 18:51:08 10° NNE
Timation 2 Rocket 4.3 18:39:45 10° NNW 18:46:35 58° ENE 18:53:18 10° SE
Okean 1 3.4 18:43:49 10° N 18:47:43 49° ENE 18:51:34 10° SSE
Okean 1-7 3.0 18:44:30 10° N 18:48:48 60° E 18:53:06 10° SSE
STARLINK-1055 3.9 18:45:11 10° WSW 18:49:17 68° NNW 18:52:45 14° NE
Cosmos 2219 4.3 18:45:05 10° N 18:49:46 25° NE 18:52:15 19° E
Cosmos 192 4.2 18:45:28 10° SSW 18:50:21 74° ESE 18:55:15 10° NNE
Lacrosse 5 1.9 18:46:15 10° SSW 18:51:17 65° SE 18:55:38 14° NE
COSMO-SKYMED 1 4.4 18:47:31 10° N 18:51:27 34° WNW 18:55:21 10° SW
NOSS 2-2 (E) 4.4 18:49:07 10° SSE 18:51:52 21° ESE 18:51:52 21° ESE
Cosmos 405 2.8 18:50:01 10° N 18:53:35 75° E 18:57:07 10° SSE
STARLINK-1022 4.0 18:50:10 10° WSW 18:54:16 63° NNW 18:57:32 16° NE
Meteor 1-14 Rocket 4.1 18:51:03 10° S 18:56:29 64° E 19:02:00 10° NNE
Meteor 2-4 Rocket 4.3 18:52:29 10° N 18:58:01 39° ENE 19:03:29 10° SE
Gbstr 26 Del rocket 3.4 18:54:35 10° WSW 18:58:33 59° NNW 19:02:07 16° NE
STARLINK-1042 4.1 18:55:12 10° WSW 18:59:17 58° NNW 19:02:20 17° NE
Cosmos 1814 Rocket 4.5 18:55:14 10° SSE 18:59:50 35° ESE 19:04:28 10° NE
Cosmos 2369 Rocket 4.3 18:55:30 10° WSW 19:00:14 27° NW 19:05:02 10° N
Cosmos 1602 3.6 18:59:21 10° S 19:03:13 81° E 19:07:05 10° N
USA 186 3.7 19:05:54 14° NNE 19:05:54 14° NNE 19:06:32 10° NNE
STARLINK-1056 4.2 19:00:13 10° WSW 19:04:16 54° NNW 19:07:06 19° NE
Cosmos 44 Rocket 3.1 19:00:26 10° NNW 19:05:12 76° ENE 19:08:48 18° SE
Cosmos 841 Rocket 3.7 19:00:59 10° S 19:05:49 44° ESE 19:10:44 10° NNE
Cosmos 1898 Rocket 3.4 19:00:51 10° NNW 19:06:03 88° ENE 19:11:15 10° SSE
Cosmos 1703 Rocket 3.8 19:01:39 10° NNW 19:06:07 75° W 19:10:35 10° S
Cosmos 1763 Rocket 3.4 19:00:58 10° SSW 19:06:11 82° ESE 19:11:30 10° NNE
SJ 16-02 1.2 19:02:48 10° NNW 19:07:14 88° ENE 19:11:37 10° SSE
ARGOS 3.5 19:04:37 13° SE 19:09:05 44° ENE 19:14:13 10° N
STARLINK-1054 4.3 19:05:13 10° WSW 19:09:15 51° NNW 19:11:52 20° NE
Cosmos 1939 Rocket 4.4 19:05:23 10° SSW 19:09:17 40° W 19:13:13 10° NNW
Resurs 01 Rocket 3.7 19:11:23 12° NE 19:11:23 12° NE 19:12:08 10° NNE
Meteor 1-19 Rocket 4.1 19:04:38 10° N 19:10:24 74° E 19:15:59 10° SSE
Cosmos 1869 Rocket 3.4 19:08:28 10° S 19:12:52 85° E 19:17:15 10° N
Cosmos 2208 Rocket 4.1 19:07:37 10° S 19:12:54 58° ESE 19:18:09 10° NNE
GPS 2-04 Rocket1 4.2 19:10:01 10° WSW 19:13:37 27° S 19:15:11 22° SSE
ARGOS Delta rocket 4.2 19:13:10 34° E 19:13:49 36° ENE 19:17:55 10° N
Meteor 1-11 Rocket 4.4 19:09:08 10° SSE 19:13:53 29° E 19:18:36 10° NNE
STARLINK-1062 4.4 19:10:14 10° WSW 19:14:14 47° NNW 19:16:39 22° NE
SPOT 3 Rocket 4.2 19:13:10 30° E 19:14:32 34° ENE 19:19:13 10° N
CENTAUR R/B 4.0 19:12:35 10° NNW 19:19:19 30° NE 19:22:39 23° ENE
CZ-4 R/B 4.2 19:17:43 10° SW 19:20:52 20° W 19:23:59 10° NW
STARLINK-80 3.9 19:19:12 10° NW 19:22:52 43° NNE 19:23:11 42° NE
CZ-2C R/B 3.3 19:18:39 11° SSE 19:24:06 60° ENE 19:29:39 10° N
Cosmos 858 Rocket 4.5 19:21:25 10° NNW 19:26:40 83° WSW 19:31:32 12° SSE
Cosmos 1570 Rocket 3.9 19:21:58 10° SSW 19:27:12 89° WNW 19:32:31 10° NNE
FREGAT/IRIS 4.4 19:29:02 21° N 19:29:02 21° N 19:30:04 10° N
SJ-6B 2.9 19:29:19 51° NE 19:29:19 51° NE 19:32:35 10° N
Ariane Rocket 3.2 19:26:38 10° S 19:31:43 71° WSW 19:36:50 10° NNW
Cosmos 540 Rocket 3.3 19:27:16 10° S 19:32:20 68° ESE 19:37:28 10° NNE
Okean 3 3.3 19:29:14 10° N 19:33:25 62° E 19:33:29 62° E
ATLAS 3B R/B 4.1 19:29:03 10° NNW 19:34:01 21° NNE 19:35:31 20° NE
BREEZE-M DEB (TANK) 4.2 19:32:08 10° WNW 19:35:28 60° SSW 19:40:13 24° SE
SL-08 RB Rocket 3.7 19:42:32 59° NE 19:42:32 59° NE 19:46:39 10° N
Meteor 1-13 Rocket 4.2 19:37:16 10° N 19:43:05 62° ENE 19:44:36 46° SE
APEX 4.0 19:38:16 10° SSW 19:43:09 86° WNW 19:49:23 10° NNE
Cosmos 2297 Rocket 2.5 19:41:22 10° NNW 19:46:50 47° ENE 19:46:50 47° ENE
CZ-2C R/B 3.6 19:44:01 10° NNE 19:48:43 74° ESE 19:53:26 10° S
Nadezhda 4 Rocket 4.4 19:45:24 10° NNW 19:51:39 65° W 19:57:53 10° S
Cosmos 1515 4.3 19:48:08 10° NNW 19:51:50 53° W 19:52:28 46° SW
Genesis I 3.9 19:49:09 10° NNW 19:52:02 48° NNW 19:52:02 48° NNW
Cosmos 1937 Rocket 4.4 19:50:00 10° NNW 19:55:00 47° WSW 19:59:19 13° S
ATLAS 2AS CENTAUR R/B 3.7 19:48:45 10° S 19:53:45 33° SE 19:53:45 33° SE
Meteor 1-5 Rocket 4.1 19:52:09 10° S 19:57:38 89° W 20:03:20 10° N
Cosmos 2026 Rocket 3.8 19:51:31 10° N 19:57:39 66° E 19:58:21 61° ESE
Cosmos 2221 Rocket 4.3 20:00:26 10° NNW 20:04:49 52° W 20:06:07 38° SW
Cosmos 2227 Rocket 2.4 20:00:26 10° NNW 20:05:17 54° NNE 20:05:17 54° NNE
USA 238 DEB 3.7 20:00:56 10° NNW 20:08:09 72° NE 20:09:21 61° ESE
USA 238 3.7 20:01:02 10° NNW 20:08:14 72° NE 20:09:24 62° ESE
H-2A R/B 3.0 20:04:08 10° S 20:09:19 48° W 20:14:36 10° NNW
Cosmos 372 Rocket 4.2 20:14:14 10° NNW 20:19:10 67° W 20:19:10 67° W
Lacrosse 5 rocket 3.2 20:21:21 10° NW 20:23:51 30° NNW 20:23:51 30° NNW
MetOp-A 4.4 20:28:09 64° WNW 20:28:09 64° WNW 20:33:01 10° NNW
Cosmos 2219 3.7 20:28:40 10° NNW 20:34:13 57° WSW 20:34:13 57° WSW
Lacrosse 5 3.3 20:30:03 10° W 20:34:35 31° NNW 20:34:52 31° NNW
USA 234 4.2 20:42:41 35° NNE 20:42:41 35° NNE 20:48:15 10° NW
H-2A R/B 4.3 20:33:16 10° WSW 20:44:07 23° SSW 20:44:21 23° SSW
Resurs 01 Rocket 4.1 20:48:56 17° NNW 20:48:56 17° NNW 20:50:02 10° NNW
NOSS 3-2 (A) 4.2 20:50:41 10° NW 20:58:17 68° WSW 20:58:22 68° SW
NOSS 3-2 (C) 4.1 20:54:37 10° NW 21:01:19 73° NW 21:01:19 73° NW
CENTAUR R/B 3.3 21:02:58 10° NW 21:09:51 69° NNW 21:09:51 69° NNW
ATLAS 3B R/B 3.9 21:19:09 10° NNW 21:22:47 34° NNW 21:22:47 34° NNW
Cosmos 2297 Rocket 4.3 21:25:57 10° NW 21:28:41 22° WNW 21:28:41 22° WNW
